Location: ActonStarParty
(42.4766°N, 71.4538°W)
Time: 20:11:13
(UTC-05:00)

Amateur Radio Satellites - All Passes

Search period start: 23 January 2017 19:41
Search period end: 24 January 2017 19:41
Location: ActonStarParty, 42.4766°N, 71.4538°W

Satellite Date Start Highest point End Downlink Frequencies (MHz)
Time Altitude Azimuth
Oscar 11 23 Jan 19:57:21 20:01:40 88° 86° (E) 20:06:03 145.826/435.025
AIST 2 23 Jan 19:58:00 20:00:50 17° 319° (NW) 20:03:41 435.215
DELFI C3 23 Jan 20:09:00 20:12:43 37° 72° (ENE) 20:16:28 145.870
STRAND 1 23 Jan 20:19:59 20:24:17 28° 295° (WNW) 20:28:35 437.568
RS-15 23 Jan 20:23:08 20:27:52 13° 93° (E) 20:32:39 29.354- 29.394
CUBEBUG 2 23 Jan 20:36:45 20:38:08 11° 270° (W) 20:39:30 437.445
FUNcube-1 23 Jan 20:39:37 20:43:12 28° 264° (W) 20:46:50 145.935
UNISAT 6 23 Jan 20:39:41 20:40:58 11° 89° (E) 20:42:15 437.425
HUMSAT D 23 Jan 20:42:13 20:46:11 49° 73° (ENE) 20:50:14 437.325/437.525
PRISM 23 Jan 20:42:18 20:46:03 33° 98° (E) 20:49:45 437.425
ISS 23 Jan 20:44:13 20:47:27 65° 143° (SE) 20:50:41 145.825
TIGRISAT 23 Jan 20:50:54 20:53:15 14° 91° (E) 20:55:37 435.000
AO-85 23 Jan 20:57:28 21:01:13 41° 51° (NE) 21:04:56 145.980
UWE-3 23 Jan 20:57:42 20:58:41 11° 271° (W) 20:59:40 435.000/436.395/437.385
ESTCUBE 1 23 Jan 21:01:11 21:03:15 13° 61° (ENE) 21:05:19 437.505/2401.250
ANTELSAT 23 Jan 21:06:11 21:09:39 22° 94° (E) 21:13:10 437.575/2403.000
ZACube-1 23 Jan 21:06:35 21:08:48 14° 269° (W) 21:11:01 437.345
GONETS M04 23 Jan 21:24:13 21:30:25 21° 298° (WNW) 21:36:42
CUBEBUG 1 23 Jan 21:32:25 21:35:00 16° 63° (ENE) 21:37:36 437.445
Cosmos 2499 23 Jan 21:40:18 21:42:25 11° 303° (WNW) 21:44:31 435.465 / 435.565
DELFI C3 23 Jan 21:45:00 21:47:40 17° 268° (W) 21:50:21 145.870
AISAT 23 Jan 21:58:11 22:01:20 19° 65° (ENE) 22:04:29 437.250
BY70-1 23 Jan 22:08:55 22:11:57 57° 259° (W) 22:15:12 436.1900
UNISAT 6 23 Jan 22:13:39 22:18:08 73° 285° (WNW) 22:22:40 437.425
PRISM 23 Jan 22:18:04 22:21:08 21° 294° (WNW) 22:24:10 437.425
HUMSAT D 23 Jan 22:19:58 22:22:06 14° 270° (W) 22:24:15 437.325/437.525
ISS 23 Jan 22:21:23 22:24:09 25° 341° (NNW) 22:26:55 145.825
JAS-2 23 Jan 22:24:42 22:31:54 54° 99° (E) 22:39:32 435.910
TIGRISAT 23 Jan 22:25:52 22:30:15 58° 286° (WNW) 22:34:44 435.000
RS-15 23 Jan 22:26:01 22:37:35 64° 114° (ESE) 22:49:39 29.354- 29.394
50 SAT 23 Jan 22:27:58 22:30:48 22° 69° (ENE) 22:33:38 437.505
VELOX 1 23 Jan 22:30:11 22:34:17 38° 70° (ENE) 22:38:23 145.980
SPROUT 23 Jan 22:31:02 22:34:38 27° 68° (ENE) 22:38:14 437.525
ESTCUBE 1 23 Jan 22:34:56 22:39:27 72° 257° (WSW) 22:44:01 437.505/2401.250
PCSat 23 Jan 22:36:22 22:40:32 23° 107° (ESE) 22:44:43 145.827
AO-85 23 Jan 22:38:44 22:41:16 17° 248° (WSW) 22:43:49 145.980
ANTELSAT 23 Jan 22:42:19 22:46:27 37° 289° (WNW) 22:50:39 437.575/2403.000
UKube-1 23 Jan 22:42:22 22:45:23 19° 64° (ENE) 22:48:25 .
DX 1 23 Jan 22:49:58 22:53:46 30° 68° (ENE) 22:57:35 434.975-435.025
YUBILEINY 23 Jan 22:50:16 22:56:04 19° 60° (ENE) 23:01:49 435.215
QB50P1 23 Jan 22:54:53 22:58:35 29° 96° (E) 23:02:18 145.935-145.965
POLYITAN 1 23 Jan 23:00:10 23:04:02 34° 97° (E) 23:07:54 437.675
QB50P2 23 Jan 23:01:30 23:05:28 37° 98° (E) 23:09:25 145.880/145.840
CUBEBUG 1 23 Jan 23:06:32 23:10:51 54° 260° (W) 23:15:10 437.445
BEESAT 3 23 Jan 23:12:44 23:16:30 38° 51° (NE) 23:20:15 437.485
POPSAT HIP 1 23 Jan 23:21:52 23:26:03 58° 101° (E) 23:30:13 437.405
DUCHIFAT 1 23 Jan 23:27:48 23:31:58 58° 101° (E) 23:36:06 145.980
AISAT 23 Jan 23:33:15 23:37:29 43° 261° (W) 23:41:43 437.250
NANOSAT C BR1 23 Jan 23:35:22 23:39:36 79° 101° (E) 23:43:49 145.865
Cosmos 2504 23 Jan 23:37:24 23:41:34 16° 60° (ENE) 23:45:39 435.465 / 435.565
AIST 1 23 Jan 23:39:54 23:43:46 32° 76° (ENE) 23:47:36
Cosmos 2491 23 Jan 23:44:04 23:49:14 18° 76° (ENE) 23:54:24 435.465 / 435.565
TISAT 1 23 Jan 23:45:29 23:48:57 26° 68° (ENE) 23:52:25 437.305
BUGSAT 1 23 Jan 23:46:58 23:50:38 32° 98° (E) 23:54:18 437.445
ISS 23 Jan 23:59:18 00:01:27 16° 1° (N) 00:03:35 145.825
50 SAT 24 Jan 00:01:01 00:03:54 23° 264° (W) 00:06:49 437.505
BEESAT 2 24 Jan 00:05:48 00:09:49 58° 54° (NE) 00:13:48 435.950
SPROUT 24 Jan 00:06:55 00:10:30 26° 265° (W) 00:14:05 437.525
VELOX 1 24 Jan 00:07:29 00:10:51 21° 266° (W) 00:14:13 145.980
ITUPSAT 1 24 Jan 00:10:09 00:11:53 12° 59° (ENE) 00:13:38 437.325
JAS-2 24 Jan 00:10:12 00:16:37 35° 295° (WNW) 00:23:25 435.910
UKube-1 24 Jan 00:17:00 00:21:06 42° 261° (W) 00:25:14 .
PCSat 24 Jan 00:18:16 00:23:33 52° 305° (NW) 00:28:52 145.827
DX 1 24 Jan 00:26:19 00:29:56 25° 264° (W) 00:33:36 434.975-435.025
PHONESAT 2.4 24 Jan 00:30:32 00:32:30 28° 165° (SSE) 00:34:29 2401.200-2431.200
QB50P1 24 Jan 00:30:48 00:34:14 25° 292° (WNW) 00:37:40 145.935-145.965
POLYITAN 1 24 Jan 00:36:23 00:39:38 22° 293° (WNW) 00:42:53 437.675
QB50P2 24 Jan 00:37:55 00:41:00 20° 294° (WNW) 00:44:05 145.880/145.840
RS-15 24 Jan 00:39:13 00:50:41 48° 319° (NW) 01:02:34 29.354- 29.394
BEESAT 24 Jan 00:39:50 00:43:32 23° 65° (ENE) 00:47:16 436.000
SWISSCUBE 24 Jan 00:41:36 00:45:33 27° 66° (ENE) 00:49:31 437.505
YUBILEINY 24 Jan 00:45:26 00:54:19 85° 82° (E) 01:03:05 435.215
BEESAT 3 24 Jan 00:50:53 00:53:53 20° 248° (WSW) 00:56:52 437.485
Oscar 19 24 Jan 00:54:37 00:59:36 46° 99° (E) 01:04:31 437.125/150
POPSAT HIP 1 24 Jan 00:59:13 01:01:20 14° 297° (WNW) 01:03:29 437.405
DUCHIFAT 1 24 Jan 01:05:04 01:07:09 14° 297° (WNW) 01:09:14 145.980
NANOSAT C BR1 24 Jan 01:13:55 01:14:41 10° 299° (WNW) 01:15:27 145.865
AIST 1 24 Jan 01:18:00 01:21:07 20° 273° (W) 01:24:14
CUSAT 1 24 Jan 01:18:59 01:23:23 23° 81° (E) 01:28:33 437.405
TISAT 1 24 Jan 01:20:57 01:24:30 27° 264° (W) 01:28:04 437.305
BUGSAT 1 24 Jan 01:22:46 01:25:49 21° 293° (WNW) 01:28:52 437.445
Cosmos 2504 24 Jan 01:28:47 01:36:10 88° 79° (ENE) 01:43:20 435.465 / 435.565
ISS 24 Jan 01:35:48 01:38:42 28° 21° (NNE) 01:41:34 145.825
Cosmos 2491 24 Jan 01:36:00 01:44:42 87° 97° (E) 01:53:29 435.465 / 435.565
MOZHAYETS 4 24 Jan 01:37:49 01:41:33 25° 67° (ENE) 01:45:20
Gurwin Techsat 1B 24 Jan 01:39:50 01:45:08 65° 102° (ESE) 01:50:24 435.225
AUBIESAT-1 24 Jan 01:42:30 01:44:10 12° 59° (ENE) 01:45:47 437.475
ITUPSAT 1 24 Jan 01:44:14 01:49:00 86° 256° (WSW) 01:53:49 437.325
BEESAT 2 24 Jan 01:45:08 01:47:08 13° 251° (WSW) 01:49:06 435.950
ITAMSAT 1 24 Jan 01:47:30 01:50:28 15° 90° (E) 01:53:26 435.822/435.867
KKS-1 24 Jan 01:51:22 01:52:56 12° 60° (ENE) 01:54:29 437.445
AO-7 24 Jan 01:52:44 01:57:46 17° 89° (E) 02:02:46 29.400- 29.500
PHONESAT 2.4 24 Jan 02:03:55 02:06:06 49° 181° (S) 02:08:15 2401.200-2431.200
PCSat 24 Jan 02:06:23 02:08:15 12° 327° (NNW) 02:10:06 145.827
BEESAT 24 Jan 02:16:37 02:21:04 40° 262° (W) 02:25:34 436.000
SWISSCUBE 24 Jan 02:18:52 02:23:11 34° 263° (W) 02:27:32 437.505
STARS 24 Jan 02:32:33 02:34:53 14° 62° (ENE) 02:37:13 437.465
Oscar 19 24 Jan 02:34:35 02:38:37 23° 296° (WNW) 02:42:37 437.125/150
CUBESAT XI-V 24 Jan 02:35:07 02:38:06 17° 63° (ENE) 02:41:04 437.345
AIST 2 24 Jan 02:38:31 02:42:40 49° 52° (NE) 02:46:47 435.215
M-CUBED/EXP-1 PRIME 24 Jan 02:40:43 02:44:58 65° 70° (ENE) 02:48:54 437.505
YUBILEINY 24 Jan 02:44:04 02:49:55 20° 282° (WNW) 02:55:46 435.215
DANDE 24 Jan 02:48:27 02:52:16 33° 87° (E) 02:57:13 436.750
RS-15 24 Jan 02:57:42 03:07:25 26° 352° (N) 03:17:11 29.354- 29.394
CUSAT 1 24 Jan 02:59:01 03:04:31 57° 286° (WNW) 03:11:31 437.405
ISS 24 Jan 03:12:09 03:15:18 48° 219° (SW) 03:18:26 145.825
AUBIESAT-1 24 Jan 03:14:00 03:18:10 65° 253° (WSW) 03:22:04 437.475
MOZHAYETS 4 24 Jan 03:14:25 03:18:33 33° 263° (W) 03:22:44
Gurwin Techsat 1B 24 Jan 03:21:02 03:24:33 18° 299° (WNW) 03:28:03 435.225
KKS-1 24 Jan 03:24:25 03:28:51 78° 258° (WSW) 03:33:19 437.445
Cosmos 2504 24 Jan 03:24:33 03:28:22 15° 283° (WNW) 03:32:09 435.465 / 435.565
ITAMSAT 1 24 Jan 03:25:13 03:30:25 68° 287° (WNW) 03:35:36 435.822/435.867
Cosmos 2491 24 Jan 03:36:37 03:42:46 21° 298° (WNW) 03:48:59 435.465 / 435.565
PHONESAT 2.4 24 Jan 03:37:46 03:39:38 23° 197° (SSW) 03:41:29 2401.200-2431.200
AO-7 24 Jan 03:43:15 03:51:40 84° 107° (ESE) 04:00:01 29.400- 29.500
BRITE-PL 24 Jan 03:43:32 03:46:32 17° 89° (E) 03:49:24 437.365/2234.400
STARS 24 Jan 04:06:26 04:10:44 59° 258° (WSW) 04:15:05 437.465
CUBESAT XI-V 24 Jan 04:10:22 04:14:59 57° 260° (W) 04:19:40 437.345
AIST 2 24 Jan 04:17:57 04:20:47 17° 249° (WSW) 04:23:35 435.215
M-CUBED/EXP-1 PRIME 24 Jan 04:18:17 04:19:40 11° 263° (W) 04:21:02 437.505
HORYU 2 24 Jan 04:24:59 04:28:07 19° 93° (E) 04:31:14 437.375
O/OREOS (USA 219) 24 Jan 04:29:26 04:33:03 25° 103° (ESE) 04:36:41 437.305
DANDE 24 Jan 04:31:23 04:35:07 26° 296° (WNW) 04:39:50 436.750
CUSAT 1 24 Jan 04:47:11 04:48:28 11° 310° (NW) 04:49:48 437.405
GOMX 1 24 Jan 05:03:41 05:07:49 41° 98° (E) 05:11:46 467.674
CUTE-I 24 Jan 05:05:37 05:09:29 20° 92° (E) 05:13:20 437.470
RS-15 24 Jan 05:14:17 05:25:10 34° 27° (NNE) 05:35:49 29.354- 29.394
BRITE-PL 24 Jan 05:20:48 05:25:25 48° 288° (WNW) 05:29:39 437.365/2234.400
DOVE 4 24 Jan 05:22:07 05:25:32 24° 95° (E) 05:28:56 437.250
Cosmos 2499 24 Jan 05:29:58 05:36:49 48° 75° (ENE) 05:43:35 435.465 / 435.565
SO-50 24 Jan 05:30:09 05:33:15 18° 110° (ESE) 05:36:21 436.795
GONETS M04 24 Jan 05:33:16 05:41:41 46° 73° (ENE) 05:50:04
AO-7 24 Jan 05:37:12 05:43:30 25° 308° (NW) 05:49:47 29.400- 29.500
NOAA 15 24 Jan 05:43:28 05:48:34 45° 99° (E) 05:53:37 137.62
Cubesat XI-IV 24 Jan 05:49:15 05:54:25 49° 99° (E) 05:59:36 437.490
STRAND 1 24 Jan 05:56:51 06:01:50 58° 72° (ENE) 06:06:51 437.568
HORYU 2 24 Jan 06:00:37 06:04:50 43° 289° (WNW) 06:09:03 437.375
O/OREOS (USA 219) 24 Jan 06:08:15 06:12:17 33° 300° (WNW) 06:16:21 437.305
LilacSat-2 24 Jan 06:11:44 06:15:36 72° 284° (WNW) 06:19:28 437.200
CINEMA 3 24 Jan 06:20:26 06:23:57 25° 95° (E) 06:27:31 145.822/145.860
NOAA 18 24 Jan 06:27:04 06:32:27 57° 102° (ESE) 06:37:48 137.9125
CUTE 1.7 + AOD 2 24 Jan 06:29:51 06:32:46 17° 92° (E) 06:35:38 437.475
HO-68 24 Jan 06:41:25 06:47:43 32° 96° (E) 06:53:58 435.675
GOMX 1 24 Jan 06:42:41 06:45:34 18° 296° (WNW) 06:48:23 467.674
CUTE-I 24 Jan 06:44:39 06:49:51 54° 289° (WNW) 06:55:03 437.470
CUBEBUG 2 24 Jan 06:48:33 06:50:21 12° 90° (E) 06:52:11 437.445
CANX-2 24 Jan 06:59:04 07:03:11 42° 98° (E) 07:07:15 2200.000
COMPASS 1 24 Jan 06:59:39 07:02:16 16° 91° (E) 07:04:53 437.405
DOVE 4 24 Jan 06:59:43 07:03:14 27° 291° (WNW) 07:06:44 437.250
SEEDS 24 Jan 07:01:38 07:05:12 26° 95° (E) 07:08:45 437.485
AAUSAT CUBESAT 2 24 Jan 07:06:48 07:09:09 15° 91° (E) 07:11:29 437.432
UWE-3 24 Jan 07:07:57 07:09:56 13° 90° (E) 07:11:56 435.000/436.395/437.385
SO-50 24 Jan 07:08:39 07:13:18 58° 307° (NW) 07:17:55 436.795
PCSat 24 Jan 07:22:33 07:27:00 25° 46° (NE) 07:31:26 145.827
Cosmos 2499 24 Jan 07:23:40 07:29:35 29° 275° (W) 07:35:30 435.465 / 435.565
NOAA 15 24 Jan 07:23:48 07:28:04 25° 296° (WNW) 07:32:18 137.62
RS-15 24 Jan 07:27:26 07:39:54 81° 55° (NE) 07:51:51 29.354- 29.394
Cubesat XI-IV 24 Jan 07:30:01 07:34:10 24° 297° (WNW) 07:38:20 437.490
GONETS M04 24 Jan 07:30:20 07:38:24 41° 274° (W) 07:46:26
PRISM 24 Jan 07:32:10 07:35:42 27° 68° (ENE) 07:39:14 437.425
STRAND 1 24 Jan 07:38:05 07:41:23 17° 269° (W) 07:44:42 437.568
UNISAT 6 24 Jan 07:40:13 07:41:09 11° 60° (ENE) 07:42:05 437.425
Oscar 11 24 Jan 07:45:07 07:47:46 16° 91° (E) 07:50:23 145.826/435.025
TIGRISAT 24 Jan 07:51:05 07:53:03 13° 62° (ENE) 07:55:01 435.000
CINEMA 3 24 Jan 07:57:25 08:01:05 29° 290° (WNW) 08:04:50 145.822/145.860
CUTE 1.7 + AOD 2 24 Jan 08:04:43 08:08:46 42° 288° (WNW) 08:12:48 437.475
ANTELSAT 24 Jan 08:06:08 08:09:13 20° 66° (ENE) 08:12:20 437.575/2403.000
NOAA 18 24 Jan 08:08:40 08:12:40 21° 299° (WNW) 08:16:42 137.9125
CUBEBUG 2 24 Jan 08:23:00 08:27:21 64° 285° (WNW) 08:31:49 437.445
FUNcube-1 24 Jan 08:25:46 08:30:04 48° 99° (E) 08:34:25 145.935
HO-68 24 Jan 08:28:46 08:35:39 51° 294° (WNW) 08:42:29 435.675
COMPASS 1 24 Jan 08:34:02 08:38:02 43° 288° (WNW) 08:42:00 437.405
CANX-2 24 Jan 08:35:45 08:38:43 18° 295° (WNW) 08:41:40 2200.000
SEEDS 24 Jan 08:37:13 08:40:51 28° 291° (WNW) 08:44:28 437.485
JAS-2 24 Jan 08:39:53 08:44:00 22° 59° (ENE) 08:48:26 435.910
AAUSAT CUBESAT 2 24 Jan 08:40:51 08:44:53 47° 287° (WNW) 08:48:52 437.432
UWE-3 24 Jan 08:42:22 08:46:45 63° 286° (WNW) 08:51:13 435.000/436.395/437.385
ZACube-1 24 Jan 08:51:20 08:55:47 83° 283° (WNW) 09:00:17 437.345
SO-50 24 Jan 08:53:02 08:54:44 12° 327° (NNW) 08:56:26 436.795
PCSat 24 Jan 09:05:26 09:10:45 57° 245° (WSW) 09:16:02 145.827
PRISM 24 Jan 09:07:26 09:10:55 25° 264° (W) 09:14:25 437.425
UNISAT 6 24 Jan 09:12:59 09:17:14 78° 259° (W) 09:21:31 437.425
DELFI C3 24 Jan 09:19:55 09:23:51 57° 100° (E) 09:27:45 145.870
Oscar 11 24 Jan 09:19:57 09:24:10 48° 287° (WNW) 09:28:21 145.826/435.025
TIGRISAT 24 Jan 09:25:02 09:29:14 61° 260° (W) 09:33:28 435.000
RS-15 24 Jan 09:41:15 09:51:02 30° 258° (WSW) 10:00:33 29.354- 29.394
ANTELSAT 24 Jan 09:41:44 09:45:41 37° 262° (W) 09:49:40 437.575/2403.000
QB50P1 24 Jan 09:48:03 09:51:27 24° 67° (ENE) 09:54:51 145.935-145.965
POLYITAN 1 24 Jan 09:53:26 09:57:00 28° 68° (ENE) 10:00:34 437.675
QB50P2 24 Jan 09:54:42 09:58:23 30° 69° (ENE) 10:02:05 145.880/145.840
HUMSAT D 24 Jan 09:59:56 10:04:16 89° 104° (ESE) 10:08:34 437.325/437.525
FUNcube-1 24 Jan 10:03:00 10:05:57 18° 295° (WNW) 10:08:56 145.935
POPSAT HIP 1 24 Jan 10:14:42 10:18:42 45° 72° (ENE) 10:22:43 437.405
DUCHIFAT 1 24 Jan 10:19:59 10:23:57 45° 72° (ENE) 10:27:56 145.980
HO-68 24 Jan 10:20:37 10:21:43 10° 314° (NW) 10:22:49 435.675
JAS-2 24 Jan 10:23:09 10:28:29 58° 260° (W) 10:34:27 435.910
ESTCUBE 1 24 Jan 10:27:20 10:30:56 23° 94° (E) 10:34:29 437.505/2401.250
NANOSAT C BR1 24 Jan 10:27:42 10:31:49 61° 73° (ENE) 10:35:57 145.865
BUGSAT 1 24 Jan 10:37:29 10:40:47 25° 68° (ENE) 10:44:05 437.445
Oscar 19 24 Jan 10:38:08 10:38:40 10° 56° (NE) 10:39:10 437.125/150
BY70-1 24 Jan 10:42:20 10:45:29 61° 101° (ESE) 10:48:22 436.1900
CUBEBUG 1 24 Jan 10:54:46 10:58:21 25° 95° (E) 11:01:54 437.445
DELFI C3 24 Jan 10:56:29 10:58:11 12° 297° (WNW) 10:59:52 145.870
AO-85 24 Jan 11:14:19 11:16:27 13° 110° (ESE) 11:18:32 145.980
AISAT 24 Jan 11:22:36 11:26:32 32° 97° (E) 11:30:27 437.250
QB50P1 24 Jan 11:23:26 11:27:05 29° 264° (W) 11:30:46 145.935-145.965
Gurwin Techsat 1B 24 Jan 11:24:30 11:27:34 16° 59° (ENE) 11:30:39 435.225
50 SAT 24 Jan 11:25:34 11:28:21 21° 95° (E) 11:31:08 437.505
POLYITAN 1 24 Jan 11:29:16 11:32:44 25° 265° (W) 11:36:14 437.675
QB50P2 24 Jan 11:30:51 11:34:12 23° 266° (W) 11:37:33 145.880/145.840
Cosmos 2491 24 Jan 11:45:41 11:54:04 46° 74° (ENE) 12:02:25 435.465 / 435.565
CUSAT 1 24 Jan 11:50:17 11:56:32 25° 62° (ENE) 12:02:21 437.405
SPROUT 24 Jan 11:51:07 11:55:14 47° 99° (E) 11:59:21 437.525
POPSAT HIP 1 24 Jan 11:52:14 11:54:43 15° 268° (W) 11:57:12 437.405
YUBILEINY 24 Jan 11:53:52 11:59:40 20° 77° (ENE) 12:05:27 435.215
VELOX 1 24 Jan 11:55:25 11:59:48 70° 102° (ESE) 12:04:10 145.980
DUCHIFAT 1 24 Jan 11:57:22 11:59:51 15° 268° (W) 12:02:21 145.980
UKube-1 24 Jan 12:03:24 12:07:08 28° 96° (E) 12:10:51 .
ESTCUBE 1 24 Jan 12:03:40 12:07:48 35° 291° (WNW) 12:11:55 437.505/2401.250
NANOSAT C BR1 24 Jan 12:06:31 12:07:55 11° 270° (W) 12:09:20 145.865
AIST 1 24 Jan 12:10:30 12:13:37 19° 87° (E) 12:16:43
Oscar 19 24 Jan 12:11:51 12:17:02 72° 74° (ENE) 12:22:14 437.125/150
BUGSAT 1 24 Jan 12:12:40 12:16:04 26° 264° (W) 12:19:29 437.445
DX 1 24 Jan 12:12:51 12:17:05 49° 100° (E) 12:21:17 434.975-435.025
Cosmos 2504 24 Jan 12:18:54 12:22:39 14° 76° (ENE) 12:26:19 435.465 / 435.565
CUBEBUG 1 24 Jan 12:30:52 12:34:37 29° 291° (WNW) 12:38:21 437.445
AO-85 24 Jan 12:51:43 12:56:24 73° 303° (WNW) 13:00:46 145.980
AO-7 24 Jan 12:52:03 12:58:54 29° 55° (NE) 13:05:44 29.400- 29.500
50 SAT 24 Jan 12:58:39 13:01:30 23° 291° (WNW) 13:04:18 437.505
AISAT 24 Jan 12:59:19 13:02:51 24° 293° (WNW) 13:06:22 437.250
Gurwin Techsat 1B 24 Jan 13:01:34 13:06:52 76° 256° (WSW) 13:12:13 435.225
TISAT 1 24 Jan 13:03:18 13:07:15 40° 99° (E) 13:11:12 437.305
ITAMSAT 1 24 Jan 13:05:38 13:09:51 26° 64° (ENE) 13:14:05 435.822/435.867
DANDE 24 Jan 13:22:58 13:30:34 44° 72° (ENE) 13:38:22 436.750
SPROUT 24 Jan 13:28:06 13:30:47 17° 296° (WNW) 13:33:28 437.525
CUSAT 1 24 Jan 13:31:22 13:39:22 77° 264° (W) 13:46:23 437.405
VELOX 1 24 Jan 13:33:48 13:35:41 13° 299° (WNW) 13:37:33 145.980
UKube-1 24 Jan 13:39:29 13:43:04 26° 293° (WNW) 13:46:39 .
Cosmos 2491 24 Jan 13:42:47 13:50:46 41° 274° (W) 13:58:47 435.465 / 435.565
ITUPSAT 1 24 Jan 13:44:38 13:48:27 23° 94° (E) 13:52:15 437.325
YUBILEINY 24 Jan 13:46:24 13:55:14 86° 278° (W) 14:04:09 435.215
AIST 1 24 Jan 13:46:56 13:50:56 35° 284° (WNW) 13:54:57
DX 1 24 Jan 13:50:10 13:52:52 16° 297° (WNW) 13:55:33 434.975-435.025
Oscar 19 24 Jan 13:54:07 13:56:51 14° 270° (W) 13:59:36 437.125/150
SO-50 24 Jan 13:59:38 14:03:09 22° 42° (NE) 14:06:38 436.795
Cosmos 2504 24 Jan 14:06:09 14:14:44 75° 94° (E) 14:22:45 435.465 / 435.565
BEESAT 24 Jan 14:15:36 14:20:16 47° 100° (E) 14:24:52 436.000
SWISSCUBE 24 Jan 14:17:42 14:22:26 56° 101° (E) 14:27:08 437.505
AO-85 24 Jan 14:35:39 14:37:30 12° 323° (NW) 14:39:19 145.980
O/OREOS (USA 219) 24 Jan 14:37:45 14:42:11 54° 64° (ENE) 14:46:37 437.305
TISAT 1 24 Jan 14:39:44 14:42:35 18° 295° (WNW) 14:45:27 437.305
BEESAT 3 24 Jan 14:40:19 14:44:05 52° 119° (ESE) 14:47:56 437.485
AO-7 24 Jan 14:42:38 14:50:59 71° 255° (WSW) 14:59:23 29.400- 29.500
ITAMSAT 1 24 Jan 14:44:14 14:49:05 41° 261° (W) 14:53:59 435.822/435.867
BRITE-PL 24 Jan 14:53:21 14:58:00 27° 66° (ENE) 15:02:33 437.365/2234.400
DANDE 24 Jan 15:05:42 15:13:20 47° 269° (W) 15:21:06 436.750
MOZHAYETS 4 24 Jan 15:08:05 15:12:39 53° 100° (E) 15:17:11
KKS-1 24 Jan 15:15:31 15:18:39 19° 93° (E) 15:21:46 437.445
CUSAT 1 24 Jan 15:15:48 15:19:49 15° 283° (WNW) 15:23:40 437.405
ITUPSAT 1 24 Jan 15:21:55 15:26:24 40° 291° (WNW) 15:30:52 437.325
HORYU 2 24 Jan 15:23:47 15:26:55 19° 64° (ENE) 15:30:05 437.375
NOAA 15 24 Jan 15:28:52 15:30:25 11° 56° (NE) 15:31:59 137.62
BEESAT 2 24 Jan 15:34:59 15:38:55 88° 121° (ESE) 15:42:56 435.950
Cubesat XI-IV 24 Jan 15:35:50 15:37:57 12° 57° (ENE) 15:40:02 437.490
SO-50 24 Jan 15:39:31 15:43:55 53° 241° (WSW) 15:48:15 436.795
YUBILEINY 24 Jan 15:47:30 15:53:26 19° 300° (WNW) 15:59:24 435.215
M-CUBED/EXP-1 PRIME 24 Jan 15:53:34 15:56:36 33° 103° (ESE) 15:59:35 437.505
BEESAT 24 Jan 15:54:12 15:57:41 20° 296° (WNW) 16:01:10 436.000
STARS 24 Jan 15:55:33 15:59:00 22° 95° (E) 16:02:27 437.465
SWISSCUBE 24 Jan 15:56:36 15:59:46 18° 298° (WNW) 16:02:56 437.505
Cosmos 2504 24 Jan 16:02:17 16:08:49 24° 294° (WNW) 16:15:05 435.465 / 435.565
CUBESAT XI-V 24 Jan 16:06:24 16:10:39 33° 96° (E) 16:14:51 437.345
GOMX 1 24 Jan 16:11:11 16:16:21 54° 73° (ENE) 16:21:15 467.674
NOAA 18 24 Jan 16:16:06 16:19:33 17° 59° (ENE) 16:23:00 137.9125
O/OREOS (USA 219) 24 Jan 16:18:32 16:21:06 15° 261° (W) 16:23:40 437.305
BEESAT 3 24 Jan 16:19:17 16:22:00 18° 317° (NW) 16:24:45 437.485
AUBIESAT-1 24 Jan 16:25:59 16:29:19 77° 108° (ESE) 16:32:36 437.475
DOVE 4 24 Jan 16:27:38 16:31:51 31° 70° (ENE) 16:35:53 437.250
CUTE-I 24 Jan 16:27:47 16:32:33 35° 67° (ENE) 16:37:20 437.470
BRITE-PL 24 Jan 16:30:44 16:36:11 46° 262° (W) 16:41:31 437.365/2234.400
AO-7 24 Jan 16:41:35 16:45:08 13° 273° (W) 16:48:43 29.400- 29.500
MOZHAYETS 4 24 Jan 16:46:21 16:49:23 18° 297° (WNW) 16:52:25
KKS-1 24 Jan 16:51:13 16:55:23 41° 289° (WNW) 16:59:32 437.445
LilacSat-2 24 Jan 16:53:53 16:57:35 57° 75° (ENE) 17:01:21 437.200
HORYU 2 24 Jan 16:59:00 17:03:10 42° 261° (W) 17:07:22 437.375
NOAA 15 24 Jan 17:04:00 17:09:17 77° 74° (ENE) 17:14:37 137.62
HO-68 24 Jan 17:11:21 17:17:08 27° 58° (ENE) 17:22:56 435.675
Cubesat XI-IV 24 Jan 17:11:51 17:17:10 84° 75° (ENE) 17:22:31 437.490
BEESAT 2 24 Jan 17:15:24 17:17:18 13° 322° (NW) 17:19:12 435.950
CINEMA 3 24 Jan 17:22:58 17:26:27 24° 68° (ENE) 17:29:53 145.822/145.860
CUTE 1.7 + AOD 2 24 Jan 17:23:50 17:26:09 14° 63° (ENE) 17:28:29 437.475
M-CUBED/EXP-1 PRIME 24 Jan 17:29:08 17:30:49 13° 300° (WNW) 17:32:29 437.505
STARS 24 Jan 17:31:28 17:35:25 34° 291° (WNW) 17:39:20 437.465
CUBESAT XI-V 24 Jan 17:44:00 17:47:52 26° 293° (WNW) 17:51:42 437.345
CUBEBUG 2 24 Jan 17:48:48 17:49:44 11° 61° (ENE) 17:50:40 437.445
GOMX 1 24 Jan 17:50:54 17:54:39 19° 268° (W) 17:58:17 467.674
COMPASS 1 24 Jan 17:51:52 17:53:45 13° 63° (ENE) 17:55:37 437.405
CANX-2 24 Jan 17:52:20 17:56:08 32° 70° (ENE) 17:59:58 2200.000
NOAA 18 24 Jan 17:54:06 17:59:36 73° 256° (WSW) 18:05:06 137.9125
SEEDS 24 Jan 17:54:13 17:57:19 20° 66° (ENE) 18:00:27 437.485
AAUSAT CUBESAT 2 24 Jan 17:58:45 18:00:10 12° 62° (ENE) 18:01:36 437.432
DOVE 4 24 Jan 18:05:17 18:09:30 29° 264° (W) 18:13:32 437.250
Cosmos 2499 24 Jan 18:06:46 18:14:20 41° 88° (E) 18:21:24 435.465 / 435.565
UWE-3 24 Jan 18:07:09 18:08:07 11° 61° (ENE) 18:09:04 435.000/436.395/437.385
STRAND 1 24 Jan 18:07:34 18:11:09 19° 92° (E) 18:14:44 437.568
CUTE-I 24 Jan 18:07:56 18:12:35 31° 264° (W) 18:17:16 437.470
AIST 2 24 Jan 18:14:17 18:18:24 84° 122° (ESE) 18:22:36 435.215
GONETS M04 24 Jan 18:34:59 18:43:15 51° 89° (E) 18:51:35
Oscar 11 24 Jan 18:41:11 18:43:25 14° 63° (ENE) 18:45:39 145.826/435.025
NOAA 15 24 Jan 18:47:01 18:49:38 14° 271° (W) 18:52:16 137.62
Cubesat XI-IV 24 Jan 18:55:50 18:57:53 12° 271° (W) 18:59:57 437.490
HO-68 24 Jan 18:57:11 19:04:19 65° 257° (WSW) 19:11:30 435.675
CUTE 1.7 + AOD 2 24 Jan 18:57:20 19:01:31 55° 260° (W) 19:05:45 437.475
CINEMA 3 24 Jan 18:59:43 19:03:30 29° 264° (W) 19:07:13 145.822/145.860
CUBEBUG 2 24 Jan 19:21:38 19:25:45 72° 257° (WSW) 19:29:55 437.445
FUNcube-1 24 Jan 19:21:59 19:25:47 37° 71° (ENE) 19:29:40 145.935
COMPASS 1 24 Jan 19:24:36 19:28:45 62° 259° (W) 19:32:58 437.405
CANX-2 24 Jan 19:28:40 19:32:01 22° 266° (W) 19:35:24 2200.000
SEEDS 24 Jan 19:28:50 19:32:45 37° 263° (W) 19:36:43 437.485
AAUSAT CUBESAT 2 24 Jan 19:30:53 19:35:03 70° 258° (WSW) 19:39:15 437.432
